From 18 Jan, 2021 0:00 UTC: All services will be temporary unavailable for maintenance

Télécharger la liste

Description du projet

QLandkarte GT is the ultimate outdoor aficionado's tool. It supports GPS maps in GeoTiff format as well as Garmin's img vector map format. Additional it is the PC side front end to QLandkarte M, a moving map application for mobile devices.

Système requise

Système d'exploitation: MacOSX, Linux, Windows XP

Télécharger la liste des paquets

Latest 5 files
Nom Taille Date Télécharger compter
Basque_Country_IBILBIDEAK.tms 0.2 KB 2015-04-29 02:12 17
France_Topo25.xml 1.1 KB 2015-03-03 19:33 86
QLandkarteGT.1.8.1.exe 40.6 MB 2015-02-18 06:08 271
qlandkartegt-1.8.1.tar.gz 6.5 MB 2015-02-16 20:06 36
Rheinland_Pfalz_Topo.xml 1.0 KB 2014-12-12 15:57 9
All Files
WMS Maps
Basque_Country_IBILBIDEAK.tms0.2 KB2015-04-29 02:1217
France_Topo25.xml1.1 KB2015-03-03 19:3386
Rheinland_Pfalz_Topo.xml1.0 KB2014-12-12 15:579
Catalonia_ICC_topo.xml0.9 KB2014-10-22 01:324
Catalonia_ICC_orto.xml0.9 KB2014-10-22 01:324
NRW_Ortho.xml0.9 KB2014-09-25 19:0819
NRW_Topo.xml0.9 KB2014-09-25 19:0812
OSM_GIScience_Heidelberg_incl_hillshade_and_elevationlines.tms0.8 KB2014-02-19 01:126
OSM_GIScience_Heidelberg.tms0.4 KB2014-02-19 01:129
OSM_OpenCycleMap.tms0.3 KB2014-02-19 00:4644
OSM_DE_Topo50_mit_Wanderwegen.tms0.4 KB2014-02-19 00:0853
OSM_DE_Topo50_ohne_Wanderwege.tms0.3 KB2014-02-13 16:0613
Austria_Topo25.tms0.5 KB2014-01-26 01:2423
Taiwan_Topo25.tms0.3 KB2013-10-02 18:165
Bayern_Topo500.xml1.1 KB2013-08-30 22:065
Bayern_Topo50.xml1.1 KB2013-08-30 22:0618
Czechia_Topo10.xml0.9 KB2013-01-19 01:296
Czechia_Topo50.xml0.9 KB2013-01-19 01:275
Slovenia_Topo50.xml1.2 KB2012-11-30 23:574
Spain_IDE_Canary_Islands_OrtoUrb.xml2.9 KB2012-11-15 06:0210
Spain_IDE_Canary_Islands_OrtoExpress.xml2.9 KB2012-11-15 06:026
Spain_IDE_Canary_Islands_Topo.xml2.9 KB2012-11-15 06:028
Spain_IGN_Carto__CanaryIslands.xml2.1 KB2012-11-13 02:165
Sachsen_Anhalt_Topo50.xml0.9 KB2012-10-04 05:444
Schleswig_Holstein_Ortho5.xml1.1 KB2012-10-02 03:189
Schleswig_Holstein_Topo5.xml1.1 KB2012-10-01 23:314
Belgium_Topo50.xml0.9 KB2012-07-19 23:427
Belgium_Topo10.xml0.9 KB2012-07-19 23:428
Belgium_Topo100.xml0.9 KB2012-07-19 23:426
Finland_Topo20.xml1.0 KB2012-07-18 23:3110
Norway_Topo10.xml0.9 KB2012-07-18 18:082
Norway_Topo50.xml0.9 KB2012-07-18 16:481
Spain_IGN_Ortho.xml2.0 KB2012-07-18 15:414
Spain_IGN_Carto.xml1.8 KB2012-07-18 15:4111
Spain_IGN_Base.xml2.0 KB2012-07-18 15:408
Italy_Topo250.xml1.1 KB2012-07-05 01:016
Italy_Topo100.xml1.1 KB2012-07-05 01:014
Italy_Topo25.xml0.9 KB2012-07-05 01:0122
Italy_Ortho.xml0.9 KB2012-07-05 01:0110
Hessen_Topo50.xml0.8 KB2012-07-05 00:592
Hessen_Topo200.xml0.8 KB2012-07-05 00:591
Hessen_Topo25.xml0.9 KB2012-07-05 00:592
Hessen_Topo100.xml0.8 KB2012-07-05 00:593
Hessen_Topo1000.xml0.8 KB2012-07-05 00:594
Hessen_Ortho.xml0.8 KB2012-07-05 00:594
Hessen_Topo10.xml0.8 KB2012-07-05 00:594
Open_Street_Browser.tms0.3 KB2012-07-05 00:0734
Berlin_Brandenburg_Topo50.xml0.9 KB2012-07-04 23:112
Berlin_Brandenburg_Topo25.xml0.8 KB2012-07-04 23:114
Berlin_Brandenburg_Topo250.xml0.9 KB2012-07-04 23:112
Berlin_Brandenburg_Topo10.xml0.9 KB2012-07-04 23:119
Berlin_Brandenburg_Topo100.xml0.9 KB2012-07-04 23:112
Berlin_Brandenburg_Ortho.xml0.9 KB2012-07-04 23:119
Baden_Wuerttemberg_Ortho.xml0.9 KB2012-07-04 22:511
Baden_Wuerttemberg_Topo500.xml0.9 KB2012-07-04 22:513
Baden_Wuerttemberg_Topo25.xml0.9 KB2012-07-04 22:518
Baden_Wuerttemberg_Topo50.xml0.9 KB2012-07-04 22:513
Baden_Wuerttemberg_Topo10.xml0.9 KB2012-07-04 22:515
Baden_Wuerttemberg_Topo200.xml0.9 KB2012-07-04 22:516
sweden_seamap_wms.xml1.0 KB2012-03-27 21:554
sweden_topo10.xml1.0 KB2012-03-22 01:214
binnenseekarte_wms.xml1.0 KB2012-02-21 00:416
France_Street.xml1.1 KB2012-02-16 20:547
South_tirol_ortho_wms.xml0.9 KB2012-02-15 19:374
brasil_topo25.xml1.0 KB2012-01-25 00:137
czechia.zip2.5 KB2012-01-02 04:364
serbien_wms.xml0.8 KB2011-08-19 01:081
litauen_wms.xml0.8 KB2011-07-26 00:083
japan_tk50_wms_.xml1.0 KB2011-07-25 23:556
sachsen_multi.zip1.7 KB2011-07-21 01:232
portugal.zip2.1 KB2011-07-19 03:2421
centrope_wms.xml1.0 KB2011-07-13 17:386
salzburg_wms.xml0.7 KB2011-07-08 19:091
estland_topo50.xml1.0 KB2011-07-08 19:092
ni_wms.xml0.7 KB2011-07-08 01:5510
canada_topo50.xml0.8 KB2011-07-08 00:109
portugal_topo50.xml0.9 KB2011-07-05 00:523
saarland.xml1.0 KB2011-07-03 06:4212
niederoesterreich.xml0.7 KB2011-06-29 00:166
polen_wms.xml0.6 KB2011-06-23 01:004
swiss_ortho_wms.xml0.9 KB2011-06-22 23:382
austria_ortho_wms.xml0.9 KB2011-06-22 20:294
sachsen_anhalt_wms.xml0.9 KB2011-06-22 19:443
meck_pom.xml0.8 KB2011-06-22 18:222
sachsen_wms.xml0.9 KB2011-06-21 16:557
D-Land250_wms.xml0.6 KB2011-06-11 00:278
thueringen.xml0.6 KB2011-05-26 18:2913
qlandkartegt
QLandkarteGT 1.8.1
QLandkarteGT.1.8.1.exe40.6 MB2015-02-18 06:08271
qlandkartegt-1.8.1.tar.gz6.5 MB2015-02-16 20:0636
garmindev
Garmin Device Driver 0.3.4
garmindev-0.3.4.tar.gz83.2 KB2010-06-06 21:5651